PROBA-1 1 26958U 01049B 26256.00930561 .00000492 00000+0 35726-4 0 9990 2 26958 97.9618 267.6407 0054222 184.0542 176.0254 15.07795581356853 CUTE-1 (CO-55) 1 27844U 03031E 26255.91589892 .00000179 00000+0 96441-4 0 9997 2 27844 98.6770 263.3860 0008464 294.0699 65.9594 14.24380316204166 CUBESAT XI-IV (CO-57) 1 27848U 03031J 26255.52689313 .00000152 00000+0 85845-4 0 9994 2 27848 98.6802 262.6439 0008618 316.5319 43.5180 14.23659046203801 APRIZESAT 4 1 35684U 09041D 26255.71305454 .00000476 00000+0 63194-4 0 9992 2 35684 98.1350 332.7509 0043996 39.1414 321.2968 14.83987370924349 APRIZESAT 3 1 35686U 09041F 26255.90000344 .00001034 00000+0 93483-4 0 9990 2 35686 98.2179 53.4050 0062132 136.8118 223.7999 14.96446687929494 PROBA-2 1 36037U 09059B 26255.92837796 .00000097 00000+0 33076-4 0 9991 2 36037 98.2482 78.0884 0013564 15.2487 344.9116 14.54893223894285 APRIZESAT 5 1 37792U 11044E 26255.35739354 .00000701 00000+0 95268-4 0 9998 2 37792 98.2473 190.8821 0053440 82.1356 278.5917 14.81204130811691 APRIZESAT 6 1 37793U 11044F 26255.67607407 .00000420 00000+0 66562-4 0 9990 2 37793 98.2285 167.9331 0043295 164.2336 259.1560 14.77019794810065 PROBA-V 1 39159U 13021A 26255.90424322 .00000027 00000+0 29817-4 0 9999 2 39159 98.3698 230.2244 0003154 225.4462 134.6460 14.23612663693597 APRIZESAT 7 1 39416U 13066A 26255.42646270 .00000990 00000+0 10303-3 0 9997 2 39416 97.7794 207.4374 0034194 282.8606 76.8793 14.91743397694230 APRIZESAT 8 1 39425U 13066K 26255.44279113 .00000830 00000+0 95397-4 0 9997 2 39425 97.8290 201.7271 0045834 0.7732 359.3547 14.87789762692645 BUGSAT-1 (TITA) 1 40014U 14033E 26255.95397931 .00002800 00000+0 14714-3 0 9995 2 40014 98.0431 353.6851 0026345 239.5440 120.3188 15.16346800669136 SAUDISAT 4 1 40016U 14033G 26255.89939578 .00000522 00000+0 75300-4 0 9997 2 40016 97.7716 39.0725 0045500 146.4569 213.9539 14.79637369659046 APRIZESAT 9 1 40018U 14033J 26255.89747614 .00000368 00000+0 61658-4 0 9996 2 40018 97.9185 27.0155 0064613 278.5199 80.8691 14.74303523656488 APRIZESAT 10 1 40019U 14033K 26255.87951140 .00000246 00000+0 46550-4 0 9995 2 40019 97.9761 20.9361 0078506 354.8232 5.2155 14.70964495655147 TECHDEMOSAT-1 (TDS-1) 1 40076U 14037H 26255.93528780 .00005839 00000+0 32224-3 0 9994 2 40076 98.3874 256.9555 0005469 347.9533 12.1565 15.14393130661501 TECHNOSAT 1 42829U 17042E 26255.40338761 .00001738 00000+0 12497-3 0 9995 2 42829 97.4391 49.8291 0018145 151.8668 208.3544 15.05385375499827 FLYING LAPTOP 1 42831U 17042G 26255.95958257 .00001850 00000+0 14683-3 0 9990 2 42831 97.4998 48.3455 0016236 181.2486 178.8701 15.01583223499625 HAWK-A 1 43765U 18099H 26255.87111892 .00004743 00000+0 18653-3 0 9992 2 43765 97.3822 306.9802 0033245 339.0508 20.9366 15.25633782426461 HAWK-B 1 43794U 18099AN 26255.86878278 .00004358 00000+0 18206-3 0 9997 2 43794 97.3871 306.2040 0031115 358.5559 1.5583 15.23719553426386 HAWK-C 1 43799U 18099AT 26255.70855131 .00005689 00000+0 19844-3 0 9995 2 43799 97.3801 308.1762 0038448 337.5550 22.4007 15.29314646427283 SALSAT 1 46495U 20068K 26255.95846815 .00005811 00000+0 19731-3 0 9998 2 46495 97.8880 264.4595 0009358 5.6980 354.4365 15.30896401328783 HAWK-2C 1 47502U 21006CT 26255.69245087 .00004623 00000+0 13580-3 0 9992 2 47502 97.2200 298.2777 0005117 237.7518 122.3231 15.35607454312920 HAWK-2A 1 47505U 21006CW 26255.56255077 .00004716 00000+0 13833-3 0 9995 2 47505 97.2241 298.8813 0004602 243.6473 116.4298 15.35648648312904 HAWK-2B 1 47508U 21006CZ 26255.68121667 .00005061 00000+0 14750-3 0 9991 2 47508 97.2112 297.1945 0005103 240.0577 120.0161 15.35808181312927 HAWK-3B 1 48931U 21059BE 26255.52669241 .00049416 00000+0 30208-3 0 9996 2 48931 97.6558 100.9756 0003425 18.0975 342.0412 15.77228596291582 HAWK-3C 1 48948U 21059BX 26255.58981339 .00050642 00000+0 30933-3 0 9993 2 48948 97.6662 106.8715 0003837 16.2850 343.8538 15.77240119291599 HAWK-3A 1 48957U 21059CG 26255.84348071 .00048624 00000+0 29687-3 0 9993 2 48957 97.6608 104.2898 0003870 17.0851 343.0544 15.77257749291631 HAWK-5C 1 52754U 22057Y 26255.94216299 .00017067 00000+0 26328-3 0 9995 2 52754 97.6676 61.5133 0004827 106.4854 253.6930 15.54215852239969 HAWK-5B 1 52756U 22057AA 26255.94200767 .00016421 00000+0 25344-3 0 9990 2 52756 97.6691 59.8781 0005542 101.7899 258.3976 15.54206434239967 HAWK-5A 1 52757U 22057AB 26255.94181896 .00016820 00000+0 25957-3 0 9995 2 52757 97.6686 60.7044 0005434 104.6462 255.5394 15.54204308239964 HAWK-6B 1 55324U 23011A 26255.57673091 .00003739 00000+0 16102-3 0 9998 2 55324 40.4973 202.0908 0003580 283.5819 76.4592 15.23584136201173 HAWK-6C 1 55326U 23011C 26255.24835965 .00003588 00000+0 15483-3 0 9997 2 55326 40.4962 200.8365 0004339 273.3751 86.6562 15.23585105201134 HAWK-6A 1 55327U 23011D 26255.18283294 .00003505 00000+0 15147-3 0 9999 2 55327 40.4973 202.8517 0003948 269.8255 90.2102 15.23582905201127 HAWK-7A 1 56191U 23054P 26255.68018022 .00004464 00000+0 16530-3 0 9998 2 56191 97.2552 140.7754 0004744 87.0138 273.1645 15.28152378190389 HAWK-7B 1 56193U 23054R 26255.68011594 .00004474 00000+0 16567-3 0 9998 2 56193 97.2577 139.0694 0003802 94.1332 266.0343 15.28154201190384 HAWK-7C 1 56200U 23054Y 26255.67998502 .00004443 00000+0 16453-3 0 9999 2 56200 97.2555 139.8112 0004103 85.7434 274.4275 15.28153904190382